Other Public Products
Issued by NWS Charleston, SC

Current Version | Previous Version | Graphics & Text | Print | Product List | Glossary On
Versions: 1 2 3 4 5 6 7 8 9 10 11 12 13 14 15 16 17 18 19 20 21 22 23 24 25 26 27 28 29 30 31 32 33 34 35 36 37 38 39 40 41 42 43 44 45 46 47 48 49 50
956
FPUS82 KCHS 220912
OPUCHS

TEST...KCHS/KSAV Gateway Observations...TEST
National Weather Service Charleston SC
400 AM EST MON JAN 22 2018

NOTE: "fair" indicates few or no clouds below 12,000 feet with no
significant weather and/or obstructions to visibility.

SCZ050-WAZ558-NCZ071-TXZ119-213-PAZ071-DCZ001-FLZ074-172-MI076-
NYZ176-178-MAZ016-IL014-TNZ027-NJZ106-GAZ044-MD014-221000-

...Gateway Observations for Charleston International...

CITY           SKY/WX    TMP DP  RH WIND       PRES   REMARKS
Chas Airport   FAIR      41  39  93 CALM      30.20R
Seattle        LGT RAIN  42  39  89 S7        30.06R
Charlotte      FAIR      46  39  76 CALM      30.18S
Dallas DFW     CLEAR     56  17  21 W20G29    29.85R
Dallas Love    CLEAR     57  16  20 W13G24    29.86R
Philladelphia  CLOUDY    44  35  70 CALM      30.14S
Wash National  CLOUDY    52  41  66 S7        30.13S
Baltimore      CLOUDY    44  39  82 E3        30.11F
Miami          FAIR      73  67  81 E10       30.08S
Detroit        LGT RAIN  39  39 100 E5        29.93F VSB 1/4 WCI  36
Newark         LGT RAIN  45  39  79 CALM      30.13F
Laguardia      CLOUDY    38  34  85 NE8       30.13F WCI  32
J F K          CLOUDY    41  39  93 E5        30.15F
Boston Logan   LGT RAIN  35  32  88 CALM      30.20R
Ft. Lauderdale FAIR      71  68  90 SE14      30.07F
Chicago O`Hare FOG       46  45  96 SE7       29.73F VSB 1/4
Chicago Midway LGT RAIN  47  47 100 SE7       29.74F FOG
Houston Bush   CLOUDY    69  67  93 W8        29.90R
Houston Hobby  CLOUDY    68  68 100 SW8       29.89S
Nashville      CLOUDY    59  43  55 S12       29.97F
Atlanta        CLOUDY    50  42  74 SE6       30.11S

$$

GAZ044-118-TXZ119-213-NCZ071-DCZ001-MDZ014-506-PAZ021-071-NJZ106-
NYZ176-178-MAZ106-OHZ011-021-055-MIZ076-KYZ091-ILZ014-INZ047-
MNZ060-ONZ431-221000-

...Gateway Observations for Savannah International...

CITY           SKY/WX    TMP DP  RH WIND       PRES   REMARKS
Savannah Arpt  FAIR      43  41  93 NW3       30.18F
Atlanta        CLOUDY    50  42  74 SE6       30.11S
Charlotte      FAIR      46  39  76 CALM      30.18S
Dallas DFW     CLEAR     56  17  21 W20G29    29.85R
Houston Bush   CLOUDY    69  67  93 W8        29.90R
Wash National  CLOUDY    52  41  66 S7        30.13S
Wash Dulles    MOCLDY    51  44  77 S7        30.11F
Baltimore      CLOUDY    44  39  82 E3        30.11F
Philadelphia   CLOUDY    44  35  70 CALM      30.14S
Newark         LGT RAIN  45  39  79 CALM      30.13F
Laguardia      CLOUDY    38  34  85 NE8       30.13F WCI  32
J F K          CLOUDY    41  39  93 E5        30.15F
Boston         LGT RAIN  35  32  88 CALM      30.20R
Pittsburg      CLOUDY    44  44 100 CALM      30.02F
Akron          FOG       44  42  93 S7        29.99F VSB 1/16
Cleveland      LGT RAIN  48  47  96 S8        29.99F FOG
Cincinnati     CLOUDY    53  45  74 S10       29.94F
Columbus       FAIR      47  47 100 S9        29.97F
Detroit        LGT RAIN  39  39 100 E5        29.93F VSB 1/4 WCI  36
Chicago O`Hare FOG       46  45  96 SE7       29.73F VSB 1/4
Minneapolis    CLOUDY    33  30  88 NE18      29.86F WCI  22
Indianapolis   MOCLDY    48  47  96 SE10      29.85F
Toronto Canada DRIZZLE   36  34  93 NE5       30.06R FOG     WCI  32

$$




USA.gov is the U.S. government's official web portal to all federal, state and local government web resources and services.